Tabellarische Ansicht des 1.12.2018


Die einzelnen Werte des Tages

Uhrzeit Temperatur Luftdruck Luftfeuchte Wind Hi-Wind Taupunkt THW Index Wind Chill Heat Index Solar- strahlung Regen

00:00

6.4 C

1009.8 hpa

88 %

9.7 km/h aus 114

14.5 km/h aus SSE

4.6 C

4.4 C

4.4 C

6.4 C

0 W/m

0.00 mm

00:05

6.3 C

1009.8 hpa

88 %

12.9 km/h aus 114

16.1 km/h aus SSE

4.5 C

3.7 C

3.7 C

6.3 C

0 W/m

0.00 mm

00:10

6.3 C

1009.8 hpa

89 %

12.9 km/h aus 117

17.7 km/h aus SSE

4.6 C

3.7 C

3.7 C

6.3 C

0 W/m

0.00 mm

00:15

6.2 C

1009.8 hpa

89 %

9.7 km/h aus 116

14.5 km/h aus SSE

4.5 C

4.2 C

4.2 C

6.2 C

0 W/m

0.00 mm

00:20

6.2 C

1009.8 hpa

89 %

11.3 km/h aus 117

17.7 km/h aus SSE

4.5 C

3.8 C

3.8 C

6.2 C

0 W/m

0.00 mm

00:25

6.3 C

1009.8 hpa

90 %

14.5 km/h aus 115

19.3 km/h aus SSE

4.8 C

3.3 C

3.3 C

6.3 C

0 W/m

0.00 mm

00:30

6.3 C

1009.8 hpa

90 %

11.3 km/h aus 114

16.1 km/h aus SSE

4.8 C

4.1 C

4.1 C

6.3 C

0 W/m

0.00 mm

00:35

6.3 C

1009.8 hpa

90 %

11.3 km/h aus 116

14.5 km/h aus SSE

4.8 C

4.1 C

4.1 C

6.3 C

0 W/m

0.00 mm

00:40

6.3 C

1009.8 hpa

90 %

11.3 km/h aus 118

16.1 km/h aus SSE

4.8 C

4.1 C

4.1 C

6.3 C

0 W/m

0.00 mm

00:45

6.4 C

1009.8 hpa

90 %

12.9 km/h aus 116

17.7 km/h aus SSE

4.9 C

3.8 C

3.8 C

6.4 C

0 W/m

0.00 mm

00:50

6.4 C

1009.8 hpa

90 %

12.9 km/h aus 117

17.7 km/h aus S

4.9 C

3.8 C

3.8 C

6.4 C

0 W/m

0.00 mm

00:55

6.4 C

1009.8 hpa

90 %

12.9 km/h aus 116

17.7 km/h aus SSE

4.9 C

3.9 C

3.8 C

6.5 C

0 W/m

0.00 mm

01:00

6.4 C

1009.8 hpa

90 %

12.9 km/h aus 114

17.7 km/h aus SSE

4.9 C

3.9 C

3.8 C

6.5 C

0 W/m

0.00 mm

01:05

6.4 C

1009.8 hpa

90 %

12.9 km/h aus 116

17.7 km/h aus S

4.9 C

3.8 C

3.8 C

6.4 C

0 W/m

0.00 mm

01:10

6.3 C

1009.8 hpa

90 %

12.9 km/h aus 117

17.7 km/h aus SSE

4.8 C

3.7 C

3.7 C

6.3 C

0 W/m

0.00 mm

01:15

6.3 C

1009.7 hpa

90 %

12.9 km/h aus 117

16.1 km/h aus SSE

4.8 C

3.7 C

3.7 C

6.3 C

0 W/m

0.00 mm

01:20

6.3 C

1009.7 hpa

90 %

12.9 km/h aus 117

16.1 km/h aus SSE

4.8 C

3.7 C

3.7 C

6.3 C

0 W/m

0.00 mm

01:25

6.2 C

1009.7 hpa

91 %

11.3 km/h aus 115

16.1 km/h aus SSE

4.9 C

3.9 C

3.9 C

6.2 C

0 W/m

0.00 mm

01:30

6.2 C

1009.5 hpa

91 %

11.3 km/h aus 115

16.1 km/h aus SSE

4.8 C

3.8 C

3.8 C

6.2 C

0 W/m

0.00 mm

01:35

6.1 C

1009.5 hpa

90 %

11.3 km/h aus 115

17.7 km/h aus SSE

4.6 C

3.8 C

3.8 C

6.1 C

0 W/m

0.00 mm

01:40

6.1 C

1009.5 hpa

90 %

9.7 km/h aus 116

12.9 km/h aus S

4.5 C

4.0 C

4.0 C

6.1 C

0 W/m

0.00 mm

01:45

6.0 C

1009.7 hpa

91 %

8.0 km/h aus 118

9.7 km/h aus SSE

4.6 C

4.3 C

4.3 C

6.0 C

0 W/m

0.00 mm

01:50

5.9 C

1009.7 hpa

90 %

8.0 km/h aus 117

9.7 km/h aus SSE

4.4 C

4.2 C

4.2 C

5.9 C

0 W/m

0.00 mm

01:55

5.8 C

1009.7 hpa

90 %

9.7 km/h aus 117

14.5 km/h aus S

4.3 C

3.7 C

3.7 C

5.8 C

0 W/m

0.00 mm

02:00

5.8 C

1009.7 hpa

91 %

9.7 km/h aus 114

14.5 km/h aus SSE

4.5 C

3.7 C

3.7 C

5.8 C

0 W/m

0.00 mm

02:05

5.8 C

1009.7 hpa

91 %

9.7 km/h aus 114

16.1 km/h aus SSE

4.5 C

3.7 C

3.7 C

5.8 C

0 W/m

0.00 mm

02:10

5.8 C

1009.7 hpa

91 %

11.3 km/h aus 116

16.1 km/h aus SSE

4.5 C

3.4 C

3.4 C

5.8 C

0 W/m

0.00 mm

02:15

5.9 C

1009.7 hpa

91 %

12.9 km/h aus 117

20.9 km/h aus S

4.6 C

3.2 C

3.2 C

5.9 C

0 W/m

0.00 mm

02:20

6.0 C

1009.7 hpa

92 %

12.9 km/h aus 116

16.1 km/h aus S

4.8 C

3.3 C

3.3 C

6.0 C

0 W/m

0.00 mm

02:25

6.1 C

1009.7 hpa

92 %

12.9 km/h aus 117

19.3 km/h aus S

4.9 C

3.4 C

3.4 C

6.1 C

0 W/m

0.00 mm

02:30

6.1 C

1009.8 hpa

92 %

11.3 km/h aus 116

17.7 km/h aus S

4.9 C

3.8 C

3.8 C

6.1 C

0 W/m

0.00 mm

02:35

6.1 C

1009.8 hpa

92 %

9.7 km/h aus 112

14.5 km/h aus S

4.9 C

4.1 C

4.1 C

6.1 C

0 W/m

0.00 mm

02:40

6.1 C

1009.8 hpa

92 %

8.0 km/h aus 116

9.7 km/h aus S

4.9 C

4.4 C

4.4 C

6.1 C

0 W/m

0.00 mm

02:45

6.1 C

1009.8 hpa

92 %

8.0 km/h aus 117

11.3 km/h aus S

4.9 C

4.4 C

4.4 C

6.1 C

0 W/m

0.00 mm

02:50

6.0 C

1009.8 hpa

92 %

8.0 km/h aus 117

12.9 km/h aus S

4.8 C

4.3 C

4.3 C

6.0 C

0 W/m

0.00 mm

02:55

5.9 C

1009.8 hpa

92 %

8.0 km/h aus 116

16.1 km/h aus SSE

4.7 C

4.2 C

4.2 C

5.9 C

0 W/m

0.00 mm

03:00

5.9 C

1009.8 hpa

92 %

6.4 km/h aus 116

11.3 km/h aus S

4.7 C

4.7 C

4.7 C

5.9 C

0 W/m

0.00 mm

03:05

6.1 C

1009.8 hpa

92 %

6.4 km/h aus 115

14.5 km/h aus SSW

4.9 C

4.8 C

4.8 C

6.1 C

0 W/m

0.00 mm

03:10

6.2 C

1009.8 hpa

92 %

6.4 km/h aus 112

11.3 km/h aus S

5.0 C

4.9 C

4.9 C

6.2 C

0 W/m

0.00 mm

03:15

6.2 C

1009.8 hpa

92 %

8.0 km/h aus 117

17.7 km/h aus SSE

5.0 C

4.5 C

4.5 C

6.2 C

0 W/m

0.00 mm

03:20

6.3 C

1009.8 hpa

92 %

8.0 km/h aus 117

16.1 km/h aus S

5.1 C

4.7 C

4.7 C

6.3 C

0 W/m

0.00 mm

03:25

6.3 C

1009.8 hpa

92 %

8.0 km/h aus 117

14.5 km/h aus SSW

5.1 C

4.8 C

4.7 C

6.4 C

0 W/m

0.00 mm

03:30

6.5 C

1009.6 hpa

93 %

8.0 km/h aus 117

17.7 km/h aus S

5.4 C

4.9 C

4.9 C

6.6 C

0 W/m

0.00 mm

03:35

6.6 C

1009.6 hpa

92 %

4.8 km/h aus 115

8.0 km/h aus SSE

5.3 C

6.0 C

5.9 C

6.6 C

0 W/m

0.00 mm

03:40

6.5 C

1009.6 hpa

92 %

4.8 km/h aus 114

8.0 km/h aus SSW

5.3 C

5.9 C

5.9 C

6.6 C

0 W/m

0.00 mm

03:45

6.5 C

1009.6 hpa

92 %

3.2 km/h aus 117

4.8 km/h aus SSW

5.3 C

6.6 C

6.5 C

6.6 C

0 W/m

0.00 mm

03:50

6.4 C

1009.6 hpa

92 %

3.2 km/h aus 116

8.0 km/h aus SSW

5.2 C

6.5 C

6.4 C

6.5 C

0 W/m

0.00 mm

03:55

6.3 C

1009.6 hpa

92 %

4.8 km/h aus 118

9.7 km/h aus SSW

5.1 C

5.7 C

5.7 C

6.4 C

0 W/m

0.00 mm

04:00

6.2 C

1009.7 hpa

92 %

6.4 km/h aus 117

11.3 km/h aus SSW

5.0 C

5.1 C

5.0 C

6.3 C

0 W/m

0.00 mm

04:05

6.1 C

1009.7 hpa

92 %

8.0 km/h aus 115

9.7 km/h aus SSE

4.9 C

4.4 C

4.4 C

6.1 C

0 W/m

0.00 mm

04:10

6.1 C

1009.7 hpa

92 %

6.4 km/h aus 114

9.7 km/h aus SSE

4.9 C

4.9 C

4.9 C

6.1 C

0 W/m

0.00 mm

04:15

6.2 C

1009.7 hpa

92 %

6.4 km/h aus 116

11.3 km/h aus S

5.0 C

4.9 C

4.9 C

6.2 C

0 W/m

0.00 mm

04:20

6.2 C

1009.7 hpa

92 %

8.0 km/h aus 117

14.5 km/h aus S

5.0 C

4.5 C

4.5 C

6.2 C

0 W/m

0.00 mm

04:25

6.2 C

1009.7 hpa

92 %

8.0 km/h aus 116

9.7 km/h aus SSE

5.0 C

4.5 C

4.5 C

6.2 C

0 W/m

0.00 mm

04:30

6.2 C

1009.8 hpa

92 %

9.7 km/h aus 117

16.1 km/h aus SSE

5.0 C

4.2 C

4.2 C

6.3 C

0 W/m

0.00 mm

04:35

6.3 C

1009.8 hpa

93 %

11.3 km/h aus 115

16.1 km/h aus SSE

5.3 C

4.1 C

4.1 C

6.4 C

0 W/m

0.00 mm

04:40

6.4 C

1009.8 hpa

93 %

8.0 km/h aus 115

12.9 km/h aus S

5.3 C

4.8 C

4.8 C

6.4 C

0 W/m

0.00 mm

04:45

6.5 C

1009.8 hpa

93 %

9.7 km/h aus 115

16.1 km/h aus S

5.4 C

4.6 C

4.5 C

6.6 C

0 W/m

0.00 mm

04:50

6.6 C

1009.8 hpa

92 %

9.7 km/h aus 117

19.3 km/h aus SSE

5.3 C

4.7 C

4.6 C

6.6 C

0 W/m

0.00 mm

04:55

6.6 C

1009.8 hpa

92 %

8.0 km/h aus 116

14.5 km/h aus SSE

5.4 C

5.1 C

5.1 C

6.7 C

0 W/m

0.00 mm

05:00

6.7 C

1009.8 hpa

92 %

6.4 km/h aus 117

9.7 km/h aus SSW

5.5 C

5.6 C

5.5 C

6.7 C

0 W/m

0.00 mm

05:05

6.7 C

1009.8 hpa

93 %

9.7 km/h aus 117

17.7 km/h aus S

5.7 C

4.9 C

4.8 C

6.8 C

0 W/m

0.00 mm

05:10

6.8 C

1009.8 hpa

93 %

11.3 km/h aus 114

22.5 km/h aus SSW

5.8 C

4.8 C

4.7 C

6.9 C

0 W/m

0.00 mm

05:15

6.9 C

1009.8 hpa

92 %

8.0 km/h aus 115

11.3 km/h aus SW

5.7 C

5.5 C

5.4 C

7.0 C

0 W/m

0.00 mm

05:20

6.9 C

1009.8 hpa

92 %

6.4 km/h aus 116

11.3 km/h aus S

5.7 C

5.9 C

5.8 C

7.0 C

0 W/m

0.00 mm

05:25

7.0 C

1009.8 hpa

92 %

9.7 km/h aus 117

16.1 km/h aus S

5.8 C

5.2 C

5.1 C

7.1 C

0 W/m

0.00 mm

05:30

7.1 C

1009.9 hpa

92 %

9.7 km/h aus 117

16.1 km/h aus S

5.8 C

5.2 C

5.2 C

7.1 C

0 W/m

0.00 mm

05:35

7.2 C

1009.9 hpa

92 %

9.7 km/h aus 115

19.3 km/h aus SSW

6.0 C

5.4 C

5.3 C

7.2 C

0 W/m

0.00 mm

05:40

7.2 C

1009.9 hpa

92 %

9.7 km/h aus 113

19.3 km/h aus WSW

6.0 C

5.4 C

5.4 C

7.3 C

0 W/m

0.00 mm

05:45

7.2 C

1009.8 hpa

92 %

6.4 km/h aus 115

11.3 km/h aus S

6.0 C

6.2 C

6.2 C

7.3 C

0 W/m

0.00 mm

05:50

7.2 C

1009.8 hpa

92 %

8.0 km/h aus 117

17.7 km/h aus SSW

6.0 C

5.8 C

5.7 C

7.3 C

0 W/m

0.00 mm

05:55

7.2 C

1009.8 hpa

91 %

6.4 km/h aus 117

12.9 km/h aus S

5.9 C

6.2 C

6.2 C

7.3 C

0 W/m

0.00 mm

06:00

7.2 C

1009.9 hpa

91 %

8.0 km/h aus 117

16.1 km/h aus S

5.9 C

5.8 C

5.7 C

7.3 C

0 W/m

0.00 mm

06:05

7.2 C

1009.9 hpa

91 %

8.0 km/h aus 118

12.9 km/h aus S

5.8 C

5.7 C

5.7 C

7.2 C

0 W/m

0.00 mm

06:10

7.1 C

1009.9 hpa

91 %

6.4 km/h aus 112

9.7 km/h aus S

5.7 C

6.1 C

6.1 C

7.2 C

0 W/m

0.00 mm

06:15

7.0 C

1009.9 hpa

91 %

9.7 km/h aus 116

24.1 km/h aus SSE

5.6 C

5.2 C

5.1 C

7.1 C

0 W/m

0.00 mm

06:20

7.0 C

1009.9 hpa

91 %

9.7 km/h aus 117

24.1 km/h aus S

5.6 C

5.2 C

5.1 C

7.1 C

0 W/m

0.00 mm

06:25

6.9 C

1009.9 hpa

90 %

9.7 km/h aus 117

16.1 km/h aus S

5.4 C

5.1 C

5.0 C

6.9 C

0 W/m

0.00 mm

06:30

6.8 C

1009.9 hpa

90 %

11.3 km/h aus 117

19.3 km/h aus S

5.3 C

4.6 C

4.6 C

6.8 C

0 W/m

0.00 mm

06:35

6.7 C

1009.9 hpa

90 %

8.0 km/h aus 116

14.5 km/h aus S

5.2 C

5.2 C

5.2 C

6.8 C

0 W/m

0.00 mm

06:40

6.6 C

1009.9 hpa

90 %

9.7 km/h aus 114

16.1 km/h aus SSE

5.1 C

4.7 C

4.7 C

6.7 C

0 W/m

0.00 mm

06:45

6.6 C

1010.0 hpa

90 %

9.7 km/h aus 115

17.7 km/h aus S

5.0 C

4.7 C

4.6 C

6.6 C

0 W/m

0.00 mm

06:50

6.6 C

1010.0 hpa

90 %

9.7 km/h aus 117

17.7 km/h aus SSE

5.0 C

4.7 C

4.6 C

6.6 C

0 W/m

0.00 mm

06:55

6.5 C

1010.0 hpa

90 %

9.7 km/h aus 117

14.5 km/h aus S

5.0 C

4.6 C

4.5 C

6.6 C

0 W/m

0.00 mm

07:00

6.5 C

1010.1 hpa

90 %

9.7 km/h aus 117

17.7 km/h aus S

5.0 C

4.6 C

4.5 C

6.6 C

0 W/m

0.00 mm

07:05

6.5 C

1010.1 hpa

91 %

9.7 km/h aus 116

17.7 km/h aus SSE

5.1 C

4.6 C

4.5 C

6.6 C

0 W/m

0.00 mm

07:10

6.5 C

1010.1 hpa

91 %

11.3 km/h aus 116

17.7 km/h aus S

5.1 C

4.3 C

4.2 C

6.6 C

0 W/m

0.00 mm

07:15

6.5 C

1010.2 hpa

91 %

11.3 km/h aus 114

17.7 km/h aus S

5.1 C

4.3 C

4.2 C

6.6 C

0 W/m

0.00 mm

07:20

6.4 C

1010.2 hpa

91 %

9.7 km/h aus 115

14.5 km/h aus SSW

5.1 C

4.5 C

4.4 C

6.5 C

0 W/m

0.00 mm

07:25

6.6 C

1010.2 hpa

91 %

9.7 km/h aus 117

24.1 km/h aus SW

5.2 C

4.7 C

4.6 C

6.6 C

0 W/m

0.00 mm

07:30

6.7 C

1010.3 hpa

91 %

8.0 km/h aus 117

16.1 km/h aus S

5.3 C

5.2 C

5.1 C

6.7 C

0 W/m

0.00 mm

07:35

6.7 C

1010.3 hpa

91 %

9.7 km/h aus 117

17.7 km/h aus WSW

5.4 C

4.8 C

4.8 C

6.8 C

0 W/m

0.00 mm

07:40

6.8 C

1010.3 hpa

91 %

9.7 km/h aus 115

20.9 km/h aus SSW

5.5 C

5.0 C

4.9 C

6.9 C

0 W/m

0.00 mm

07:45

6.9 C

1010.3 hpa

91 %

9.7 km/h aus 113

17.7 km/h aus S

5.6 C

5.1 C

5.1 C

7.0 C

0 W/m

0.00 mm

07:50

7.1 C

1010.3 hpa

91 %

11.3 km/h aus 116

22.5 km/h aus S

5.7 C

4.9 C

4.9 C

7.1 C

0 W/m

0.00 mm

07:55

7.2 C

1010.3 hpa

91 %

9.7 km/h aus 117

17.7 km/h aus S

5.8 C

5.4 C

5.3 C

7.2 C

0 W/m

0.00 mm

08:00

7.2 C

1010.2 hpa

91 %

9.7 km/h aus 115

16.1 km/h aus S

5.9 C

5.4 C

5.4 C

7.3 C

4 W/m

0.00 mm

08:05

7.2 C

1010.2 hpa

90 %

9.7 km/h aus 117

16.1 km/h aus S

5.7 C

5.4 C

5.4 C

7.3 C

6 W/m

0.00 mm

08:10

7.2 C

1010.2 hpa

90 %

11.3 km/h aus 114

20.9 km/h aus SSW

5.7 C

5.2 C

5.1 C

7.3 C

8 W/m

0.00 mm

08:15

7.2 C

1010.2 hpa

90 %

9.7 km/h aus 114

17.7 km/h aus S

5.7 C

5.4 C

5.4 C

7.3 C

7 W/m

0.00 mm

08:20

7.2 C

1010.2 hpa

90 %

6.4 km/h aus 116

12.9 km/h aus SSW

5.6 C

6.2 C

6.1 C

7.2 C

6 W/m

0.00 mm

08:25

7.2 C

1010.2 hpa

90 %

6.4 km/h aus 117

11.3 km/h aus S

5.6 C

6.2 C

6.1 C

7.2 C

7 W/m

0.00 mm

08:30

7.2 C

1010.1 hpa

90 %

8.0 km/h aus 117

17.7 km/h aus SSW

5.7 C

5.8 C

5.7 C

7.3 C

8 W/m

0.00 mm

08:35

7.2 C

1010.1 hpa

90 %

6.4 km/h aus 117

14.5 km/h aus SW

5.7 C

6.2 C

6.2 C

7.3 C

6 W/m

0.00 mm

08:40

7.3 C

1010.1 hpa

89 %

8.0 km/h aus 114

14.5 km/h aus SSE

5.6 C

5.8 C

5.8 C

7.3 C

5 W/m

0.00 mm

08:45

7.3 C

1010.2 hpa

89 %

6.4 km/h aus 114

11.3 km/h aus SSE

5.6 C

6.3 C

6.2 C

7.3 C

9 W/m

0.00 mm

08:50

7.3 C

1010.2 hpa

89 %

9.7 km/h aus 116

19.3 km/h aus SW

5.6 C

5.6 C

5.5 C

7.4 C

13 W/m

0.00 mm

08:55

7.4 C

1010.2 hpa

89 %

9.7 km/h aus 115

16.1 km/h aus SSW

5.7 C

5.7 C

5.6 C

7.4 C

16 W/m

0.00 mm

09:00

7.4 C

1010.1 hpa

89 %

11.3 km/h aus 115

22.5 km/h aus S

5.7 C

5.4 C

5.4 C

7.5 C

13 W/m

0.00 mm

09:05

7.5 C

1010.1 hpa

89 %

11.3 km/h aus 117

17.7 km/h aus S

5.8 C

5.5 C

5.4 C

7.6 C

17 W/m

0.00 mm

09:10

7.6 C

1010.1 hpa

89 %

11.3 km/h aus 115

19.3 km/h aus SSW

5.9 C

5.6 C

5.5 C

7.6 C

19 W/m

0.00 mm

09:15

7.6 C

1010.1 hpa

89 %

11.3 km/h aus 115

17.7 km/h aus SSE

5.9 C

5.6 C

5.5 C

7.6 C

18 W/m

0.00 mm

09:20

7.6 C

1010.1 hpa

89 %

11.3 km/h aus 117

17.7 km/h aus SSW

5.9 C

5.6 C

5.5 C

7.6 C

27 W/m

0.00 mm

09:25

7.6 C

1010.1 hpa

89 %

8.0 km/h aus 117

17.7 km/h aus SSW

5.9 C

6.2 C

6.1 C

7.6 C

43 W/m

0.00 mm

09:30

7.6 C

1009.9 hpa

88 %

8.0 km/h aus 117

17.7 km/h aus S

5.7 C

6.1 C

6.1 C

7.6 C

62 W/m

0.00 mm

09:35

7.6 C

1009.9 hpa

88 %

8.0 km/h aus 117

16.1 km/h aus S

5.7 C

6.2 C

6.2 C

7.6 C

104 W/m

0.00 mm

09:40

7.7 C

1009.9 hpa

88 %

8.0 km/h aus 114

14.5 km/h aus SSW

5.8 C

6.3 C

6.3 C

7.7 C

100 W/m

0.00 mm

09:45

7.7 C

1009.9 hpa

88 %

8.0 km/h aus 115

16.1 km/h aus S

5.9 C

6.4 C

6.3 C

7.8 C

91 W/m

0.00 mm

09:50

7.8 C

1009.9 hpa

88 %

11.3 km/h aus 117

20.9 km/h aus SSE

5.9 C

5.8 C

5.8 C

7.8 C

67 W/m

0.00 mm

09:55

7.8 C

1009.9 hpa

88 %

12.9 km/h aus 116

25.7 km/h aus S

6.0 C

5.6 C

5.5 C

7.9 C

69 W/m

0.00 mm

10:00

7.9 C

1009.9 hpa

87 %

11.3 km/h aus 117

20.9 km/h aus SSW

5.9 C

5.9 C

5.9 C

7.9 C

111 W/m

0.00 mm

10:05

8.2 C

1009.9 hpa

86 %

12.9 km/h aus 116

24.1 km/h aus SW

6.0 C

5.9 C

5.9 C

8.2 C

169 W/m

0.00 mm

10:10

8.4 C

1009.9 hpa

85 %

12.9 km/h aus 114

24.1 km/h aus SSW

6.0 C

6.1 C

6.1 C

8.4 C

147 W/m

0.00 mm

10:15

8.6 C

1010.0 hpa

85 %

12.9 km/h aus 117

19.3 km/h aus SSW

6.2 C

6.3 C

6.3 C

8.6 C

152 W/m

0.00 mm

10:20

8.6 C

1010.0 hpa

85 %

12.9 km/h aus 118

22.5 km/h aus S

6.2 C

6.3 C

6.3 C

8.6 C

86 W/m

0.00 mm

10:25

8.6 C

1010.0 hpa

84 %

14.5 km/h aus 117

25.7 km/h aus SW

6.0 C

6.0 C

6.0 C

8.6 C

81 W/m

0.00 mm

10:30

8.5 C

1009.9 hpa

84 %

14.5 km/h aus 117

29.0 km/h aus S

5.9 C

5.9 C

5.9 C

8.5 C

88 W/m

0.00 mm

10:35

8.6 C

1009.9 hpa

84 %

14.5 km/h aus 115

24.1 km/h aus S

6.0 C

6.0 C

6.0 C

8.6 C

104 W/m

0.00 mm

10:40

8.6 C

1009.9 hpa

84 %

14.5 km/h aus 115

22.5 km/h aus S

6.0 C

6.0 C

6.0 C

8.6 C

103 W/m

0.00 mm

10:45

8.6 C

1010.0 hpa

84 %

14.5 km/h aus 117

22.5 km/h aus S

6.0 C

6.0 C

6.0 C

8.6 C

125 W/m

0.00 mm

10:50

8.9 C

1010.0 hpa

83 %

14.5 km/h aus 117

25.7 km/h aus SW

6.2 C

6.4 C

6.4 C

8.9 C

257 W/m

0.00 mm

10:55

9.2 C

1010.0 hpa

82 %

17.7 km/h aus 117

25.7 km/h aus S

6.3 C

6.2 C

6.2 C

9.2 C

286 W/m

0.00 mm

11:00

9.4 C

1010.0 hpa

81 %

20.9 km/h aus 116

32.2 km/h aus SW

6.3 C

5.8 C

5.9 C

9.3 C

249 W/m

0.00 mm

11:05

9.3 C

1010.0 hpa

81 %

19.3 km/h aus 114

35.4 km/h aus S

6.2 C

6.1 C

6.1 C

9.3 C

202 W/m

0.00 mm

11:10

9.3 C

1010.0 hpa

81 %

17.7 km/h aus 114

30.6 km/h aus SSE

6.2 C

6.3 C

6.3 C

9.3 C

216 W/m

0.00 mm

11:15

9.4 C

1009.8 hpa

80 %

19.3 km/h aus 117

32.2 km/h aus S

6.2 C

6.2 C

6.2 C

9.4 C

269 W/m

0.00 mm

11:20

9.6 C

1009.8 hpa

80 %

17.7 km/h aus 117

29.0 km/h aus WSW

6.3 C

6.5 C

6.6 C

9.5 C

244 W/m

0.00 mm

11:25

9.7 C

1009.8 hpa

80 %

17.7 km/h aus 118

32.2 km/h aus S

6.4 C

6.7 C

6.7 C

9.6 C

255 W/m

0.00 mm

11:30

9.7 C

1009.8 hpa

80 %

20.9 km/h aus 115

33.8 km/h aus SSW

6.4 C

6.2 C

6.2 C

9.6 C

281 W/m

0.00 mm

11:35

9.6 C

1009.8 hpa

79 %

20.9 km/h aus 115

30.6 km/h aus S

6.1 C

6.1 C

6.2 C

9.6 C

281 W/m

0.00 mm

11:40

9.6 C

1009.8 hpa

78 %

22.5 km/h aus 117

35.4 km/h aus SE

6.0 C

5.8 C

5.9 C

9.5 C

260 W/m

0.00 mm

11:45

9.8 C

1009.8 hpa

79 %

19.3 km/h aus 116

32.2 km/h aus S

6.3 C

6.6 C

6.6 C

9.7 C

254 W/m

0.00 mm

11:50

9.7 C

1009.8 hpa

80 %

19.3 km/h aus 117

32.2 km/h aus S

6.4 C

6.4 C

6.4 C

9.6 C

173 W/m

0.00 mm

11:55

9.6 C

1009.8 hpa

79 %

17.7 km/h aus 115

29.0 km/h aus S

6.1 C

6.5 C

6.6 C

9.5 C

170 W/m

0.00 mm

12:00

9.7 C

1009.5 hpa

79 %

16.1 km/h aus 115

27.4 km/h aus S

6.3 C

7.0 C

7.1 C

9.7 C

261 W/m

0.00 mm

12:05

9.9 C

1009.5 hpa

79 %

14.5 km/h aus 117

20.9 km/h aus S

6.5 C

7.7 C

7.7 C

9.9 C

235 W/m

0.00 mm

12:10

9.8 C

1009.5 hpa

79 %

17.7 km/h aus 117

30.6 km/h aus S

6.4 C

6.8 C

6.9 C

9.8 C

233 W/m

0.00 mm

12:15

9.9 C

1009.4 hpa

77 %

16.1 km/h aus 116

24.1 km/h aus SSE

6.0 C

7.2 C

7.3 C

9.8 C

234 W/m

0.00 mm

12:20

10.0 C

1009.4 hpa

78 %

17.7 km/h aus 114

27.4 km/h aus S

6.3 C

7.1 C

7.1 C

9.9 C

221 W/m

0.00 mm

12:25

10.0 C

1009.4 hpa

78 %

17.7 km/h aus 115

25.7 km/h aus SSE

6.3 C

7.1 C

7.1 C

9.9 C

221 W/m

0.00 mm

12:30

10.1 C

1009.2 hpa

78 %

17.7 km/h aus 118

25.7 km/h aus S

6.4 C

7.1 C

7.2 C

10.0 C

214 W/m

0.00 mm

12:35

10.2 C

1009.2 hpa

78 %

16.1 km/h aus 117

24.1 km/h aus S

6.6 C

7.6 C

7.7 C

10.2 C

220 W/m

0.00 mm

12:40

10.2 C

1009.2 hpa

77 %

16.1 km/h aus 117

25.7 km/h aus S

6.3 C

7.5 C

7.6 C

10.1 C

189 W/m

0.00 mm

12:45

10.1 C

1009.2 hpa

77 %

14.5 km/h aus 115

25.7 km/h aus S

6.3 C

7.8 C

7.8 C

10.1 C

178 W/m

0.00 mm

12:50

10.3 C

1009.2 hpa

76 %

12.9 km/h aus 114

19.3 km/h aus S

6.3 C

8.3 C

8.4 C

10.2 C

265 W/m

0.00 mm

12:55

10.6 C

1009.2 hpa

76 %

16.1 km/h aus 117

27.4 km/h aus S

6.6 C

7.9 C

8.1 C

10.4 C

276 W/m

0.00 mm

13:00

10.4 C

1009.2 hpa

75 %

17.7 km/h aus 117

27.4 km/h aus S

6.1 C

7.4 C

7.6 C

10.2 C

233 W/m

0.00 mm

13:05

10.3 C

1009.2 hpa

75 %

19.3 km/h aus 116

29.0 km/h aus S

6.0 C

7.0 C

7.1 C

10.2 C

175 W/m

0.00 mm

13:10

10.4 C

1009.2 hpa

75 %

22.5 km/h aus 115

30.6 km/h aus S

6.1 C

6.7 C

6.8 C

10.2 C

251 W/m

0.00 mm

13:15

10.3 C

1009.0 hpa

74 %

17.7 km/h aus 115

32.2 km/h aus SSW

5.8 C

7.2 C

7.4 C

10.1 C

239 W/m

0.00 mm

13:20

10.6 C

1009.0 hpa

75 %

14.5 km/h aus 117

29.0 km/h aus S

6.3 C

8.2 C

8.4 C

10.4 C

245 W/m

0.00 mm

13:25

10.4 C

1009.0 hpa

74 %

17.7 km/h aus 117

27.4 km/h aus SSE

6.0 C

7.4 C

7.6 C

10.3 C

217 W/m

0.00 mm

13:30

10.5 C

1009.0 hpa

75 %

11.3 km/h aus 117

19.3 km/h aus SSW

6.3 C

8.9 C

9.1 C

10.3 C

215 W/m

0.00 mm

13:35

10.5 C

1009.0 hpa

75 %

9.7 km/h aus 115

17.7 km/h aus S

6.3 C

9.2 C

9.3 C

10.3 C

208 W/m

0.00 mm

13:40

10.4 C

1009.0 hpa

74 %

12.9 km/h aus 115

22.5 km/h aus S

6.0 C

8.3 C

8.5 C

10.2 C

184 W/m

0.00 mm

13:45

10.4 C

1008.8 hpa

75 %

14.5 km/h aus 117

22.5 km/h aus S

6.2 C

8.1 C

8.3 C

10.3 C

170 W/m

0.00 mm

13:50

10.4 C

1008.8 hpa

73 %

16.1 km/h aus 116

30.6 km/h aus SSE

5.8 C

7.7 C

7.9 C

10.2 C

108 W/m

0.00 mm

13:55

10.4 C

1008.8 hpa

73 %

16.1 km/h aus 117

25.7 km/h aus S

5.8 C

7.7 C

7.8 C

10.2 C

110 W/m

0.00 mm

14:00

10.3 C

1008.8 hpa

73 %

17.7 km/h aus 115

27.4 km/h aus S

5.7 C

7.3 C

7.5 C

10.2 C

133 W/m

0.00 mm

14:05

10.3 C

1008.8 hpa

73 %

20.9 km/h aus 115

38.6 km/h aus S

5.7 C

6.8 C

7.0 C

10.2 C

108 W/m

0.00 mm

14:10

10.2 C

1008.8 hpa

72 %

16.1 km/h aus 117

29.0 km/h aus S

5.4 C

7.4 C

7.7 C

10.0 C

86 W/m

0.00 mm

14:15

10.2 C

1008.8 hpa

73 %

12.9 km/h aus 117

27.4 km/h aus S

5.6 C

8.2 C

8.3 C

10.1 C

94 W/m

0.00 mm

14:20

10.2 C

1008.8 hpa

74 %

12.9 km/h aus 117

29.0 km/h aus S

5.8 C

8.2 C

8.3 C

10.1 C

100 W/m

0.00 mm

14:25

10.2 C

1008.8 hpa

74 %

14.5 km/h aus 116

29.0 km/h aus S

5.7 C

7.8 C

7.9 C

10.0 C

87 W/m

0.00 mm

14:30

10.1 C

1008.8 hpa

74 %

11.3 km/h aus 114

19.3 km/h aus S

5.7 C

8.4 C

8.6 C

9.9 C

74 W/m

0.00 mm

14:35

10.1 C

1008.8 hpa

74 %

11.3 km/h aus 116

19.3 km/h aus S

5.7 C

8.4 C

8.6 C

9.9 C

71 W/m

0.00 mm

14:40

10.1 C

1008.8 hpa

74 %

16.1 km/h aus 118

27.4 km/h aus SE

5.6 C

7.3 C

7.4 C

9.9 C

70 W/m

0.00 mm

14:45

10.0 C

1008.7 hpa

75 %

16.1 km/h aus 117

24.1 km/h aus S

5.8 C

7.3 C

7.4 C

9.9 C

88 W/m

0.00 mm

14:50

9.9 C

1008.7 hpa

75 %

16.1 km/h aus 117

29.0 km/h aus SSE

5.7 C

7.2 C

7.3 C

9.8 C

77 W/m

0.00 mm

14:55

9.9 C

1008.7 hpa

75 %

14.5 km/h aus 114

22.5 km/h aus SSW

5.7 C

7.5 C

7.6 C

9.8 C

66 W/m

0.00 mm

15:00

9.8 C

1008.7 hpa

75 %

12.9 km/h aus 116

22.5 km/h aus S

5.6 C

7.7 C

7.8 C

9.7 C

54 W/m

0.00 mm

15:05

9.7 C

1008.7 hpa

75 %

16.1 km/h aus 116

20.9 km/h aus S

5.5 C

6.9 C

7.1 C

9.6 C

46 W/m

0.00 mm

15:10

9.7 C

1008.7 hpa

75 %

14.5 km/h aus 116

25.7 km/h aus S

5.4 C

7.2 C

7.3 C

9.5 C

41 W/m

0.00 mm

15:15

9.6 C

1008.6 hpa

75 %

14.5 km/h aus 117

22.5 km/h aus S

5.3 C

7.0 C

7.2 C

9.4 C

39 W/m

0.00 mm

15:20

9.5 C

1008.6 hpa

75 %

17.7 km/h aus 116

24.1 km/h aus S

5.3 C

6.3 C

6.5 C

9.3 C

39 W/m

0.00 mm

15:25

9.4 C

1008.6 hpa

76 %

16.1 km/h aus 114

25.7 km/h aus S

5.4 C

6.6 C

6.7 C

9.3 C

34 W/m

0.00 mm

15:30

9.3 C

1008.4 hpa

76 %

16.1 km/h aus 116

24.1 km/h aus SSE

5.3 C

6.4 C

6.6 C

9.2 C

31 W/m

0.00 mm

15:35

9.3 C

1008.4 hpa

76 %

14.5 km/h aus 117

24.1 km/h aus S

5.3 C

6.7 C

6.8 C

9.1 C

26 W/m

0.00 mm

15:40

9.2 C

1008.4 hpa

76 %

14.5 km/h aus 117

19.3 km/h aus SSE

5.2 C

6.6 C

6.7 C

9.0 C

21 W/m

0.00 mm

15:45

9.1 C

1008.3 hpa

77 %

14.5 km/h aus 118

22.5 km/h aus SSE

5.2 C

6.5 C

6.6 C

8.9 C

18 W/m

0.00 mm

15:50

8.9 C

1008.3 hpa

77 %

14.5 km/h aus 115

22.5 km/h aus S

5.1 C

6.3 C

6.4 C

8.8 C

14 W/m

0.00 mm

15:55

8.9 C

1008.3 hpa

77 %

14.5 km/h aus 114

22.5 km/h aus SSE

5.1 C

6.3 C

6.4 C

8.8 C

11 W/m

0.00 mm

16:00

8.8 C

1008.3 hpa

77 %

16.1 km/h aus 117

24.1 km/h aus S

5.0 C

5.9 C

6.0 C

8.7 C

8 W/m

0.00 mm

16:05

8.7 C

1008.3 hpa

78 %

17.7 km/h aus 117

22.5 km/h aus S

5.0 C

5.4 C

5.6 C

8.6 C

5 W/m

0.00 mm

16:10

8.6 C

1008.3 hpa

78 %

16.1 km/h aus 117

20.9 km/h aus SSE

5.0 C

5.7 C

5.8 C

8.5 C

0 W/m

0.00 mm

16:15

8.6 C

1008.2 hpa

78 %

17.7 km/h aus 117

24.1 km/h aus SSE

4.9 C

5.3 C

5.4 C

8.4 C

0 W/m

0.00 mm

16:20

8.5 C

1008.2 hpa

78 %

14.5 km/h aus 114

20.9 km/h aus SSE

4.9 C

5.8 C

5.9 C

8.4 C

0 W/m

0.00 mm

16:25

8.4 C

1008.2 hpa

78 %

12.9 km/h aus 114

19.3 km/h aus SE

4.8 C

6.1 C

6.2 C

8.3 C

0 W/m

0.00 mm

16:30

8.3 C

1008.1 hpa

78 %

14.5 km/h aus 117

20.9 km/h aus SSE

4.7 C

5.6 C

5.7 C

8.2 C

0 W/m

0.00 mm

16:35

8.3 C

1008.1 hpa

79 %

12.9 km/h aus 117

17.7 km/h aus SSE

4.8 C

5.9 C

6.0 C

8.2 C

0 W/m

0.00 mm

16:40

8.2 C

1008.1 hpa

79 %

11.3 km/h aus 117

16.1 km/h aus SSE

4.7 C

6.1 C

6.2 C

8.1 C

0 W/m

0.00 mm

16:45

8.1 C

1007.8 hpa

79 %

11.3 km/h aus 115

16.1 km/h aus SSE

4.7 C

6.1 C

6.2 C

8.0 C

0 W/m

0.00 mm

16:50

8.1 C

1007.8 hpa

80 %

9.7 km/h aus 115

16.1 km/h aus SSE

4.8 C

6.3 C

6.4 C

7.9 C

0 W/m

0.00 mm

16:55

8.1 C

1007.8 hpa

80 %

11.3 km/h aus 115

19.3 km/h aus S

4.8 C

6.0 C

6.1 C

7.9 C

0 W/m

0.00 mm

17:00

8.1 C

1007.7 hpa

80 %

14.5 km/h aus 116

19.3 km/h aus SSE

4.8 C

5.3 C

5.4 C

7.9 C

0 W/m

0.00 mm

17:05

8.1 C

1007.7 hpa

80 %

14.5 km/h aus 117

19.3 km/h aus SE

4.8 C

5.3 C

5.4 C

7.9 C

0 W/m

0.00 mm

17:10

8.1 C

1007.7 hpa

80 %

14.5 km/h aus 117

19.3 km/h aus SE

4.8 C

5.3 C

5.4 C

7.9 C

0 W/m

0.00 mm

17:15

8.1 C

1007.4 hpa

80 %

16.1 km/h aus 115

19.3 km/h aus SE

4.8 C

5.0 C

5.1 C

7.9 C

0 W/m

0.00 mm

17:20

8.1 C

1007.4 hpa

80 %

14.5 km/h aus 113

20.9 km/h aus ESE

4.9 C

5.4 C

5.5 C

8.0 C

0 W/m

0.00 mm

17:25

8.1 C

1007.4 hpa

81 %

14.5 km/h aus 116

19.3 km/h aus SE

5.0 C

5.4 C

5.5 C

8.0 C

0 W/m

0.00 mm

17:30

8.1 C

1007.2 hpa

81 %

16.1 km/h aus 116

20.9 km/h aus SE

5.0 C

5.0 C

5.1 C

7.9 C

0 W/m

0.00 mm

17:35

8.1 C

1007.2 hpa

82 %

17.7 km/h aus 116

22.5 km/h aus SE

5.2 C

4.8 C

4.9 C

8.0 C

0 W/m

0.00 mm

17:40

7.9 C

1007.2 hpa

82 %

16.1 km/h aus 117

19.3 km/h aus ESE

5.1 C

4.9 C

5.0 C

7.9 C

0 W/m

0.00 mm

17:45

7.8 C

1007.2 hpa

83 %

16.1 km/h aus 116

22.5 km/h aus SE

5.1 C

4.8 C

4.8 C

7.8 C

0 W/m

0.00 mm

17:50

7.8 C

1007.2 hpa

83 %

16.1 km/h aus 114

19.3 km/h aus SE

5.1 C

4.7 C

4.8 C

7.7 C

0 W/m

0.00 mm

17:55

7.7 C

1007.2 hpa

83 %

16.1 km/h aus 117

20.9 km/h aus SE

5.0 C

4.6 C

4.7 C

7.6 C

0 W/m

0.00 mm

18:00

7.6 C

1007.1 hpa

83 %

16.1 km/h aus 117

20.9 km/h aus SE

4.9 C

4.6 C

4.6 C

7.6 C

0 W/m

0.00 mm

18:05

7.6 C

1007.1 hpa

84 %

14.5 km/h aus 117

19.3 km/h aus SE

5.0 C

4.8 C

4.8 C

7.5 C

0 W/m

0.00 mm

18:10

7.5 C

1007.1 hpa

84 %

14.5 km/h aus 117

17.7 km/h aus SE

5.0 C

4.7 C

4.8 C

7.4 C

0 W/m

0.00 mm

18:15

7.4 C

1007.1 hpa

84 %

14.5 km/h aus 116

17.7 km/h aus SE

4.9 C

4.7 C

4.7 C

7.4 C

0 W/m

0.00 mm

18:20

7.3 C

1007.1 hpa

84 %

12.9 km/h aus 114

17.7 km/h aus SE

4.8 C

4.8 C

4.9 C

7.3 C

0 W/m

0.00 mm

18:25

7.2 C

1007.1 hpa

84 %

11.3 km/h aus 116

16.1 km/h aus SE

4.7 C

5.1 C

5.1 C

7.2 C

0 W/m

0.00 mm

18:30

7.2 C

1006.9 hpa

84 %

11.3 km/h aus 116

17.7 km/h aus SE

4.6 C

5.0 C

5.1 C

7.1 C

0 W/m

0.00 mm

18:35

7.1 C

1006.9 hpa

84 %

9.7 km/h aus 117

14.5 km/h aus ESE

4.6 C

5.2 C

5.3 C

7.1 C

0 W/m

0.00 mm

18:40

7.0 C

1006.9 hpa

85 %

11.3 km/h aus 117

14.5 km/h aus SE

4.6 C

4.8 C

4.8 C

6.9 C

0 W/m

0.00 mm

18:45

6.9 C

1006.8 hpa

85 %

9.7 km/h aus 116

12.9 km/h aus SE

4.6 C

5.0 C

5.1 C

6.9 C

0 W/m

0.00 mm

18:50

6.9 C

1006.8 hpa

85 %

9.7 km/h aus 114

14.5 km/h aus SE

4.6 C

5.0 C

5.1 C

6.9 C

0 W/m

0.00 mm

18:55

6.9 C

1006.8 hpa

85 %

9.7 km/h aus 117

14.5 km/h aus SE

4.6 C

5.0 C

5.1 C

6.9 C

0 W/m

0.00 mm

19:00

7.0 C

1006.7 hpa

85 %

11.3 km/h aus 117

14.5 km/h aus SE

4.6 C

4.8 C

4.8 C

6.9 C

0 W/m

0.00 mm

19:05

7.1 C

1006.7 hpa

85 %

14.5 km/h aus 116

22.5 km/h aus SE

4.7 C

4.2 C

4.2 C

7.0 C

0 W/m

0.00 mm

19:10

7.2 C

1006.7 hpa

85 %

16.1 km/h aus 117

20.9 km/h aus SE

4.8 C

4.1 C

4.1 C

7.1 C

0 W/m

0.00 mm

19:15

7.3 C

1006.7 hpa

85 %

14.5 km/h aus 115

17.7 km/h aus SE

5.0 C

4.5 C

4.6 C

7.3 C

0 W/m

0.00 mm

19:20

7.4 C

1006.7 hpa

84 %

11.3 km/h aus 113

16.1 km/h aus SSE

4.9 C

5.3 C

5.3 C

7.3 C

0 W/m

0.00 mm

19:25

7.4 C

1006.7 hpa

84 %

9.7 km/h aus 116

14.5 km/h aus SE

4.9 C

5.6 C

5.7 C

7.4 C

0 W/m

0.00 mm

19:30

7.5 C

1006.7 hpa

83 %

8.0 km/h aus 117

14.5 km/h aus SSE

4.8 C

6.0 C

6.1 C

7.4 C

0 W/m

0.00 mm

19:35

7.6 C

1006.7 hpa

83 %

11.3 km/h aus 117

16.1 km/h aus SSE

4.9 C

5.4 C

5.5 C

7.5 C

0 W/m

0.00 mm

19:40

7.6 C

1006.7 hpa

83 %

9.7 km/h aus 117

16.1 km/h aus SE

4.9 C

5.7 C

5.8 C

7.5 C

0 W/m

0.00 mm

19:45

7.6 C

1006.2 hpa

83 %

8.0 km/h aus 114

16.1 km/h aus ESE

4.9 C

6.1 C

6.1 C

7.5 C

0 W/m

0.00 mm

19:50

7.6 C

1006.2 hpa

83 %

9.7 km/h aus 115

16.1 km/h aus SE

4.9 C

5.8 C

5.8 C

7.6 C

0 W/m

0.00 mm

19:55

7.6 C

1006.2 hpa

83 %

12.9 km/h aus 116

20.9 km/h aus SE

4.9 C

5.2 C

5.2 C

7.6 C

0 W/m

0.00 mm

20:00

7.7 C

1006.0 hpa

82 %

11.3 km/h aus 118

16.1 km/h aus SE

4.8 C

5.6 C

5.7 C

7.6 C

0 W/m

0.00 mm

20:05

7.7 C

1006.0 hpa

82 %

14.5 km/h aus 117

19.3 km/h aus SE

4.8 C

4.9 C

5.0 C

7.6 C

0 W/m

0.00 mm

20:10

7.7 C

1006.0 hpa

82 %

14.5 km/h aus 116

24.1 km/h aus SSE

4.8 C

5.0 C

5.1 C

7.7 C

0 W/m

0.00 mm

20:15

7.8 C

1005.7 hpa

82 %

17.7 km/h aus 116

22.5 km/h aus SE

4.9 C

4.6 C

4.6 C

7.8 C

0 W/m

0.00 mm

20:20

7.9 C

1005.7 hpa

82 %

16.1 km/h aus 112

20.9 km/h aus SE

5.0 C

4.8 C

4.9 C

7.8 C

0 W/m

0.00 mm

20:25

7.9 C

1005.7 hpa

81 %

16.1 km/h aus 117

20.9 km/h aus SE

4.9 C

4.9 C

5.0 C

7.8 C

0 W/m

0.00 mm

20:30

7.9 C

1005.4 hpa

81 %

12.9 km/h aus 117

19.3 km/h aus SE

4.9 C

5.5 C

5.6 C

7.8 C

0 W/m

0.00 mm

20:35

7.9 C

1005.4 hpa

81 %

9.7 km/h aus 117

16.1 km/h aus ESE

4.9 C

6.2 C

6.3 C

7.8 C

0 W/m

0.00 mm

20:40

7.9 C

1005.4 hpa

81 %

11.3 km/h aus 116

17.7 km/h aus SE

4.9 C

5.9 C

6.0 C

7.8 C

0 W/m

0.00 mm

20:45

7.9 C

1005.2 hpa

81 %

11.3 km/h aus 115

19.3 km/h aus SE

4.9 C

5.9 C

6.0 C

7.8 C

0 W/m

0.00 mm

20:50

7.9 C

1005.2 hpa

81 %

8.0 km/h aus 114

14.5 km/h aus SE

4.9 C

6.5 C

6.6 C

7.8 C

0 W/m

0.00 mm

20:55

7.9 C

1005.2 hpa

82 %

8.0 km/h aus 115

16.1 km/h aus ESE

5.1 C

6.6 C

6.6 C

7.9 C

0 W/m

0.00 mm

21:00

8.0 C

1005.0 hpa

82 %

11.3 km/h aus 117

19.3 km/h aus ENE

5.1 C

6.0 C

6.1 C

7.9 C

0 W/m

0.00 mm

21:05

8.0 C

1005.0 hpa

82 %

11.3 km/h aus 118

17.7 km/h aus ESE

5.1 C

6.0 C

6.1 C

7.9 C

0 W/m

0.00 mm

21:10

8.0 C

1005.0 hpa

82 %

9.7 km/h aus 117

17.7 km/h aus SE

5.1 C

6.3 C

6.3 C

7.9 C

0 W/m

0.00 mm

21:15

8.0 C

1004.6 hpa

82 %

11.3 km/h aus 113

16.1 km/h aus SE

5.1 C

6.0 C

6.1 C

7.9 C

0 W/m

0.00 mm

21:20

8.1 C

1004.6 hpa

82 %

16.1 km/h aus 115

25.7 km/h aus SE

5.2 C

5.1 C

5.1 C

8.0 C

0 W/m

0.00 mm

21:25

8.1 C

1004.6 hpa

82 %

19.3 km/h aus 117

27.4 km/h aus SE

5.2 C

4.6 C

4.6 C

8.0 C

0 W/m

0.00 mm

21:30

8.1 C

1004.4 hpa

82 %

19.3 km/h aus 117

22.5 km/h aus SE

5.2 C

4.6 C

4.6 C

8.0 C

0 W/m

0.00 mm

21:35

8.1 C

1004.4 hpa

82 %

20.9 km/h aus 117

27.4 km/h aus SE

5.2 C

4.4 C

4.4 C

8.1 C

0 W/m

0.00 mm

21:40

8.2 C

1004.4 hpa

82 %

24.1 km/h aus 115

32.2 km/h aus SE

5.3 C

4.1 C

4.1 C

8.1 C

0 W/m

0.00 mm

21:45

8.2 C

1004.2 hpa

82 %

24.1 km/h aus 114

32.2 km/h aus SE

5.3 C

4.2 C

4.2 C

8.2 C

0 W/m

0.00 mm

21:50

8.3 C

1004.2 hpa

82 %

22.5 km/h aus 116

32.2 km/h aus SE

5.4 C

4.4 C

4.4 C

8.2 C

0 W/m

0.00 mm

21:55

8.3 C

1004.2 hpa

82 %

20.9 km/h aus 117

27.4 km/h aus ESE

5.4 C

4.6 C

4.7 C

8.2 C

0 W/m

0.00 mm

22:00

8.3 C

1004.0 hpa

82 %

22.5 km/h aus 117

30.6 km/h aus SE

5.4 C

4.4 C

4.4 C

8.2 C

0 W/m

0.00 mm

22:05

8.3 C

1004.0 hpa

82 %

22.5 km/h aus 116

32.2 km/h aus SE

5.4 C

4.4 C

4.4 C

8.2 C

0 W/m

0.00 mm

22:10

8.3 C

1004.0 hpa

82 %

22.5 km/h aus 116

32.2 km/h aus SE

5.4 C

4.4 C

4.4 C

8.2 C

0 W/m

0.00 mm

22:15

8.2 C

1003.7 hpa

82 %

22.5 km/h aus 115

29.0 km/h aus SSE

5.3 C

4.3 C

4.4 C

8.2 C

0 W/m

0.00 mm

22:20

8.2 C

1003.7 hpa

82 %

24.1 km/h aus 116

33.8 km/h aus SSE

5.3 C

4.2 C

4.2 C

8.2 C

0 W/m

0.00 mm

22:25

8.3 C

1003.7 hpa

82 %

25.7 km/h aus 116

33.8 km/h aus SE

5.4 C

4.1 C

4.1 C

8.2 C

0 W/m

0.00 mm

22:30

8.3 C

1003.6 hpa

82 %

24.1 km/h aus 117

37.0 km/h aus SE

5.4 C

4.2 C

4.3 C

8.2 C

0 W/m

0.00 mm

22:35

8.3 C

1003.6 hpa

82 %

20.9 km/h aus 115

25.7 km/h aus SSE

5.4 C

4.6 C

4.7 C

8.2 C

0 W/m

0.00 mm

22:40

8.3 C

1003.6 hpa

83 %

20.9 km/h aus 115

30.6 km/h aus SSE

5.6 C

4.6 C

4.7 C

8.2 C

0 W/m

0.00 mm

22:45

8.2 C

1003.1 hpa

83 %

22.5 km/h aus 114

29.0 km/h aus SSE

5.5 C

4.3 C

4.4 C

8.2 C

0 W/m

0.00 mm

22:50

8.2 C

1003.1 hpa

84 %

25.7 km/h aus 117

33.8 km/h aus SE

5.6 C

3.9 C

3.9 C

8.2 C

0 W/m

0.00 mm

22:55

8.1 C

1003.1 hpa

84 %

22.5 km/h aus 116

32.2 km/h aus SE

5.6 C

4.3 C

4.3 C

8.1 C

0 W/m

0.00 mm

23:00

8.1 C

1003.1 hpa

84 %

24.1 km/h aus 117

30.6 km/h aus SSE

5.6 C

4.1 C

4.1 C

8.1 C

0 W/m

0.00 mm

23:05

8.1 C

1003.1 hpa

84 %

29.0 km/h aus 116

43.5 km/h aus SSE

5.6 C

3.6 C

3.6 C

8.1 C

0 W/m

0.00 mm

23:10

8.2 C

1003.1 hpa

84 %

25.7 km/h aus 115

38.6 km/h aus SSE

5.6 C

3.9 C

3.9 C

8.2 C

0 W/m

0.00 mm

23:15

8.2 C

1003.0 hpa

84 %

27.4 km/h aus 114

35.4 km/h aus SSE

5.7 C

3.9 C

3.9 C

8.2 C

0 W/m

0.00 mm

23:20

8.2 C

1003.0 hpa

84 %

24.1 km/h aus 117

30.6 km/h aus SE

5.7 C

4.2 C

4.2 C

8.2 C

0 W/m

0.00 mm

23:25

8.2 C

1003.0 hpa

84 %

22.5 km/h aus 117

33.8 km/h aus S

5.7 C

4.4 C

4.4 C

8.2 C

0 W/m

0.00 mm

23:30

8.3 C

1002.6 hpa

84 %

24.1 km/h aus 117

30.6 km/h aus SSE

5.7 C

4.3 C

4.3 C

8.3 C

0 W/m

0.00 mm

23:35

8.3 C

1002.6 hpa

84 %

24.1 km/h aus 117

30.6 km/h aus SE

5.7 C

4.3 C

4.3 C

8.3 C

0 W/m

0.00 mm

23:40

8.3 C

1002.6 hpa

84 %

20.9 km/h aus 114

29.0 km/h aus SSE

5.7 C

4.7 C

4.7 C

8.3 C

0 W/m

0.00 mm

23:45

8.3 C

1002.5 hpa

84 %

22.5 km/h aus 116

33.8 km/h aus SSE

5.7 C

4.4 C

4.4 C

8.3 C

0 W/m

0.00 mm

23:50

8.3 C

1002.5 hpa

84 %

24.1 km/h aus 117

37.0 km/h aus SSE

5.8 C

4.3 C

4.3 C

8.3 C

0 W/m

0.00 mm

23:55

8.3 C

1002.5 hpa

84 %

19.3 km/h aus 116

35.4 km/h aus SSE

5.7 C

4.9 C

4.9 C

8.3 C

0 W/m

0.00 mm